GW6813 Weather Reports


time (UTC)temp
C
wind
direction
speed
KPH
gust
KPH
rain 1hr
cm
rain 24hr
cm
rain mn
cm
humidity
%
barometer
mb
20260504110315 13 113 9.7 14.5 0.00 0.00 0.00 46 994.6
20260504100315 12 113 4.8 12.9 0.00 0.00 0.00 46 994.9
20260504081815 12 113 3.2 11.3 0.00 0.00 0.00 48 997.0
20260504081315 12 113 4.8 11.3 0.00 0.00 0.00 48 997.0
20260504080814 12 135 0.0 9.7 0.00 0.00 0.00 49 997.0
20260504080316 12 158 0.0 8.0 0.00 0.00 0.00 49 997.0
20260504070314 12 68 3.2 8.0 0.00 0.00 0.00 47 998.0
20260504050314 11 180 0.0 1.6 0.00 0.00 0.00 53 1000.3
20260504045814 11 203 0.0 0.0 0.00 0.00 0.00 54 1000.3
20260504045314 11 158 0.0 0.0 0.00 0.00 0.00 53 1000.3
20260504044814 11 270 0.0 0.0 0.00 0.00 0.00 53 1000.3
20260504044313 12 225 0.0 0.0 0.00 0.00 0.00 53 1000.3
20260504043814 12 203 0.0 0.0 0.00 0.00 0.00 54 1000.3
20260504043314 12 203 0.0 0.0 0.00 0.00 0.00 54 1000.7
20260504042814 12 203 0.0 0.0 0.00 0.00 0.00 54 1000.7
20260504042317 12 225 0.0 0.0 0.00 0.00 0.00 54 1001.0
20260504041815 12 203 0.0 0.0 0.00 0.00 0.00 53 1001.0
20260504041313 12 203 0.0 0.0 0.00 0.00 0.00 51 1001.0
20260504040813 12 203 0.0 0.0 0.00 0.00 0.00 51 1001.0
20260504040314 13 203 0.0 0.0 0.00 0.00 0.00 51 1001.0
20260504035813 13 225 0.0 0.0 0.00 0.00 0.00 50 1001.4
20260504035313 13 203 0.0 0.0 0.00 0.00 0.00 47 1001.4
20260504034814 13 203 0.0 0.0 0.00 0.00 0.00 47 1001.7
20260504034313 13 225 0.0 0.0 0.00 0.00 0.00 48 1001.7
20260504033814 13 225 0.0 0.0 0.00 0.00 0.00 46 1001.7
20260504033314 14 203 0.0 0.0 0.00 0.00 0.00 46 1002.0
20260504032814 14 225 0.0 0.0 0.00 0.00 0.00 45 1002.0
20260504032314 15 203 0.0 0.0 0.00 0.00 0.00 43 1002.0
20260504031814 15 203 0.0 0.0 0.00 0.00 0.00 42 1002.0
20260504031316 15 225 0.0 0.0 0.00 0.00 0.00 41 1002.0
20260504030814 15 225 0.0 3.2 0.00 0.00 0.00 40 1002.0
20260504030313 15 225 0.0 3.2 0.00 0.00 0.00 38 1002.0
20260504025813 16 203 0.0 3.2 0.00 0.00 0.00 36 1002.0
20260504025314 16 180 0.0 3.2 0.00 0.00 0.00 36 1002.0
20260504024814 16 180 0.0 3.2 0.00 0.00 0.00 34 1002.0
20260504024320 16 180 0.0 3.2 0.00 0.00 0.00 34 1002.0
20260504023814 17 180 0.0 6.4 0.00 0.00 0.00 34 1002.0
20260504023314 17 203 0.0 6.4 0.00 0.00 0.00 32 1002.0
20260504022815 17 203 0.0 6.4 0.00 0.00 0.00 32 1002.0
20260504022314 17 180 0.0 6.4 0.00 0.00 0.00 31 1002.0
20260504021813 17 180 0.0 6.4 0.00 0.00 0.00 31 1002.0
20260504021313 17 180 0.0 8.0 0.00 0.00 0.00 30 1002.4
20260504020814 18 158 0.0 8.0 0.00 0.00 0.00 30 1002.4
20260504020313 18 158 0.0 8.0 0.00 0.00 0.00 30 1002.4
20260504015813 18 203 0.0 8.0 0.00 0.00 0.00 29 1002.4
20260504015313 18 180 0.0 8.0 0.00 0.00 0.00 29 1002.4
20260504014814 18 180 0.0 8.0 0.00 0.00 0.00 28 1002.4
20260504014314 18 248 3.2 8.0 0.00 0.00 0.00 28 1002.4
20260504013815 18 270 6.4 8.0 0.00 0.00 0.00 27 1002.4
20260504013314 19 225 0.0 8.0 0.00 0.00 0.00 27 1002.4
20260504012814 19 45 1.6 8.0 0.00 0.00 0.00 27 1002.4
20260504012314 19 315 3.2 8.0 0.00 0.00 0.00 26 1002.4
20260504011814 20 23 3.2 8.0 0.00 0.00 0.00 26 1002.4
20260504011314 20 270 8.0 9.7 0.00 0.00 0.00 25 1002.4
20260504010813 20 113 0.0 9.7 0.00 0.00 0.00 25 1002.4
20260504010314 20 158 1.6 9.7 0.00 0.00 0.00 25 1002.4
20260504005814 20 68 0.0 9.7 0.00 0.00 0.00 24 1002.7
20260504005314 20 270 3.2 9.7 0.00 0.00 0.00 24 1002.7
20260504004814 21 158 0.0 9.7 0.00 0.00 0.00 24 1002.7
20260504004314 21 113 0.0 9.7 0.00 0.00 0.00 24 1002.7
20260504003813 21 113 3.2 9.7 0.00 0.00 0.00 24 1002.7
20260504003314 21 180 0.0 9.7 0.00 0.00 0.00 24 1002.7